Location: Kawakawa
(35.3830°S, 174.0670°E)
Time: 00:58:21
(UTC+12:00)

FengYun 1-2 T - Pass Details

Date: 15 August 2020
Orbit: 847 x 880 km, 98.7° (Epoch: 19 September)

Event Time Altitude Azimuth Distance (km) Brightness Sun altitude
Rises 19:04:52 0° 166° (SSE) 3,487 7.2 -15.4°
Reaches altitude 10° 19:07:17 10° 165° (SSE) 2,538 6.5 -15.9°
Maximum altitude 19:12:56 80° 77° (ENE) 884 4.2 -17.0°
Drops below altitude 10° 19:18:29 10° 349° (N) 2,484 6.8 -18.1°
Sets 19:20:49 0° 348° (NNW) 3,409 7.6 -18.6°
